カタログに戻る

SHIYAN 20A DEB

運用中LEO
NORAD 55716·DEBRIS·🇨🇳 China

打ち上げ Dec 12, 2022 から Jiuquan Satellite Launch Center

Loading…

次のパス (今後24時間)

TLE

最新Source: Space-Track

元期: Sep 14, 2026, 08:33 UTC

1 55716U 22169E   26257.35638153  .00000437  00000-0  20920-3 0  9990
2 55716  59.9952 292.2768 0004843 354.4211   5.6771 14.33027257185756

AllMySatでSHIYAN 20A DEBをリアルタイム追跡

Download on the App Store